User: anonymous   Login
Location: Ward Pound Ridge Reservation
(41.2500°N, 73.6000°W)
Time: 16:22:46
(UTC-04:00)
Language:

Tiangong 2 - Orbit

View from above orbital plane
View from above orbital plane
View from above satellite
View from above satellite

Ground track
Ground track

The orbit data is extracted from the following two-line orbital elements,

1 41765U 16057A   17291.43089120  .00006672  00000-0  87315-4 0  9998
2 41765  42.7836 342.7380 0002893 354.3704 210.8023 15.59220317 62212
Epoch (UTC): 18 October 2017 10:20:29
Eccentricity: 0.0002893
inclination: 42.7836°
perigee height: 388 km
apogee height: 392 km
right ascension of ascending node: 342.7380°
argument of perigee: 354.3704°
revolutions per day: 15.59220317
mean anomaly at epoch: 210.8023°
orbit number at epoch: 6221

The dashed part of the orbit path shows where the satellite is in the earth's shadow,  

DLR